Regional Weather Roundup
Issued by NWS

Home | Current Version | Previous Version | Graphics & Text | Print | Product List | Glossary On
Versions: 1 2 3 4 5 6 7 8 9 10 11 12 13 14 15 16 17 18 19 20 21 22 23 24 25 26 27 28 29 30 31 32 33 34 35 36 37 38 39 40 41 42 43 44 45 46 47 48 49 50
000
ASUS43 KLMK 220102
RWRKY
KENTUCKY REGIONAL WEATHER ROUNDUP
NATIONAL WEATHER SERVICE LOUISVILLE KY
800 PM EST SUN JAN 21 2018

NOTE "FAIR" INDICATES FEW OR NO CLOUDS BELOW 12,000 FEET
WITH NO SIGNIFICANT WEATHER AND/OR OBSTRUCTIONS TO VISIBILITY.

KYZ001>023-026-027-061>063-070>075-220200-
WESTERN AND SOUTH CENTRAL KENTUCKY

CITY           SKY/WX    TMP DP  RH WIND       PRES   REMARKS
PADUCAH        CLOUDY    59  51  75 SE7       29.94F
HENDERSON      CLOUDY    53  50  89 SE7       29.98F
OWENSBORO      MOCLDY    51  50  96 CALM      30.00F
HOPKINSVILLE   FAIR      61  47  59 S8        30.01R
BOWLING GREEN  MOCLDY    59  49  69 S6        30.05S
GLASGOW        NOT AVBL
$$

KYZ024-025-028>034-038-045-046-053-220200-
NORTH CENTRAL KENTUCKY

CITY           SKY/WX    TMP DP  RH WIND       PRES   REMARKS
LOUISVILLE/SDF CLOUDY    58  51  78 S6        30.03S
LOUISVILLE/LOU MOCLDY    56  52  86 CALM      30.04S
FORT KNOX      MOCLDY    54  14  20 SE6       30.05S
$$

KYZ035>037-039>044-047>052-055>060-089>105-220200-
NORTHEAST KENTUCKY

CITY           SKY/WX    TMP DP  RH WIND       PRES   REMARKS
LEXINGTON      MOCLDY    56  49  77 S9        30.07S
COVINGTON      CLOUDY    52  51  97 S7        30.04S
FRANKFORT      CLOUDY    56  48  74 S6        30.04F
$$

KYZ054-064>069-076>088-106>120-220200-
SOUTHEAST KENTUCKY

CITY           SKY/WX    TMP DP  RH WIND       PRES   REMARKS
JACKSON        CLOUDY    57  44  62 CALM      30.12R
LONDON         CLOUDY    56  42  59 SE3       30.11F
SOMERSET       NOT AVBL
MIDDLESBORO    CLOUDY    45  40  82 CALM      30.16S
MONTICELLO     FAIR      55  42  61 E8        30.12S
$$





USA.gov is the U.S. government's official web portal to all federal, state and local government web resources and services.